| time (UTC) | temp C | wind direction | speed KPH | gust KPH | rain 1hr cm | rain 24hr cm | rain mn cm | humidity % | barometer mb |
| 20260506004706 | 17 | 91 | 0.0 | 4.8 | 0.00 | 0.00 | 0.00 | 77 | 1019.5 |
| 20260506004205 | 17 | 91 | 0.0 | 3.2 | 0.00 | 0.00 | 0.00 | 76 | 1019.4 |
| 20260506003700 | 17 | 91 | 0.0 | 0.0 | 0.00 | 0.00 | 0.00 | 76 | 1019.4 |
| 20260506003157 | 17 | 91 | 0.0 | 1.6 | 0.00 | 0.00 | 0.00 | 76 | 1019.7 |
| 20260506002652 | 17 | 91 | 0.0 | 0.0 | 0.00 | 0.00 | 0.00 | 76 | 1019.5 |
| 20260506002149 | 17 | 91 | 0.0 | 0.0 | 0.00 | 0.00 | 0.00 | 77 | 1019.3 |
| 20260506001644 | 17 | 91 | 0.0 | 8.0 | 0.00 | 0.00 | 0.00 | 77 | 1019.6 |
| 20260506001142 | 17 | 91 | 1.6 | 3.2 | 0.00 | 0.00 | 0.00 | 76 | 1019.4 |
| 20260506000639 | 17 | 91 | 0.0 | 1.6 | 0.00 | 0.00 | 0.00 | 76 | 1019.4 |
| 20260506000136 | 17 | 90 | 3.2 | 4.8 | 0.00 | 0.00 | 0.00 | 77 | 1019.4 |
| 20260505235634 | 17 | 91 | 1.6 | 1.6 | 0.00 | 0.00 | 0.00 | 75 | 1019.5 |
| 20260505235131 | 17 | 91 | 1.6 | 4.8 | 0.00 | 0.00 | 0.00 | 76 | 1019.5 |
| 20260505234628 | 17 | 90 | 1.6 | 3.2 | 0.00 | 0.00 | 0.00 | 75 | 1019.6 |
| 20260505234125 | 17 | 91 | 0.0 | 1.6 | 0.00 | 0.00 | 0.00 | 74 | 1019.6 |
| 20260505233622 | 17 | 91 | 0.0 | 1.6 | 0.00 | 0.00 | 0.00 | 75 | 1019.8 |
| 20260505233120 | 17 | 91 | 0.0 | 0.0 | 0.00 | 0.00 | 0.00 | 75 | 1019.7 |
| 20260505232617 | 17 | 91 | 0.0 | 4.8 | 0.00 | 0.00 | 0.00 | 76 | 1019.8 |
| 20260505232115 | 17 | 91 | 0.0 | 3.2 | 0.00 | 0.00 | 0.00 | 76 | 1020.0 |
| 20260505231612 | 17 | 91 | 3.2 | 4.8 | 0.00 | 0.00 | 0.00 | 75 | 1019.9 |
| 20260505231110 | 17 | 92 | 1.6 | 3.2 | 0.00 | 0.00 | 0.00 | 74 | 1020.1 |
| 20260505230608 | 17 | 91 | 0.0 | 1.6 | 0.00 | 0.00 | 0.00 | 75 | 1019.9 |
| 20260505225600 | 17 | 91 | 0.0 | 1.6 | 0.00 | 0.00 | 0.00 | 74 | 1019.8 |
| 20260505225056 | 17 | 91 | 1.6 | 3.2 | 0.00 | 0.00 | 0.00 | 74 | 1020.0 |
| 20260505224553 | 17 | 91 | 0.0 | 1.6 | 0.00 | 0.00 | 0.00 | 76 | 1020.1 |
| 20260505224051 | 17 | 92 | 1.6 | 3.2 | 0.00 | 0.00 | 0.00 | 76 | 1019.9 |
| 20260505223548 | 17 | 91 | 0.0 | 3.2 | 0.00 | 0.00 | 0.00 | 76 | 1020.0 |
| 20260505223044 | 17 | 91 | 1.6 | 3.2 | 0.00 | 0.00 | 0.00 | 75 | 1020.1 |
| 20260505222540 | 17 | 91 | 0.0 | 1.6 | 0.00 | 0.00 | 0.00 | 75 | 1020.1 |
| 20260505222037 | 17 | 92 | 0.0 | 1.6 | 0.00 | 0.00 | 0.00 | 76 | 1020.1 |
| 20260505221534 | 16 | 91 | 1.6 | 4.8 | 0.00 | 0.00 | 0.00 | 76 | 1020.3 |
| 20260505221030 | 17 | 92 | 3.2 | 4.8 | 0.00 | 0.00 | 0.00 | 75 | 1019.9 |
| 20260505220528 | 17 | 92 | 1.6 | 3.2 | 0.00 | 0.00 | 0.00 | 74 | 1020.0 |
| 20260505220026 | 17 | 91 | 0.0 | 1.6 | 0.00 | 0.00 | 0.00 | 76 | 1020.2 |
| 20260505215523 | 17 | 91 | 0.0 | 4.8 | 0.00 | 0.00 | 0.00 | 76 | 1020.3 |
| 20260505215021 | 16 | 91 | 0.0 | 3.2 | 0.00 | 0.00 | 0.00 | 77 | 1020.2 |
| 20260505214519 | 17 | 88 | 6.4 | 9.7 | 0.00 | 0.00 | 0.00 | 76 | 1020.2 |
| 20260505214015 | 17 | 91 | 3.2 | 4.8 | 0.00 | 0.00 | 0.00 | 75 | 1020.1 |
| 20260505213513 | 17 | 91 | 1.6 | 1.6 | 0.00 | 0.00 | 0.00 | 76 | 1020.3 |
| 20260505213009 | 17 | 92 | 3.2 | 4.8 | 0.00 | 0.00 | 0.00 | 76 | 1020.3 |
| 20260505212506 | 16 | 91 | 1.6 | 3.2 | 0.00 | 0.00 | 0.00 | 77 | 1020.1 |
| 20260505212003 | 17 | 92 | 3.2 | 4.8 | 0.00 | 0.00 | 0.00 | 75 | 1020.4 |
| 20260505211500 | 17 | 91 | 4.8 | 4.8 | 0.00 | 0.00 | 0.00 | 75 | 1020.2 |
| 20260505210956 | 17 | 91 | 0.0 | 3.2 | 0.00 | 0.00 | 0.00 | 76 | 1020.2 |
| 20260505210453 | 17 | 92 | 3.2 | 4.8 | 0.00 | 0.00 | 0.00 | 75 | 1020.3 |
| 20260505205950 | 17 | 91 | 1.6 | 1.6 | 0.00 | 0.00 | 0.00 | 76 | 1020.2 |
| 20260505205449 | 16 | 92 | 0.0 | 4.8 | 0.00 | 0.00 | 0.00 | 77 | 1020.3 |
| 20260505204945 | 17 | 92 | 1.6 | 4.8 | 0.00 | 0.00 | 0.00 | 76 | 1020.4 |
| 20260505204443 | 17 | 91 | 0.0 | 1.6 | 0.00 | 0.00 | 0.00 | 76 | 1020.1 |
| 20260505203940 | 16 | 91 | 0.0 | 0.0 | 0.00 | 0.00 | 0.00 | 78 | 1020.3 |
| 20260505203436 | 16 | 92 | 1.6 | 3.2 | 0.00 | 0.00 | 0.00 | 77 | 1020.3 |
| 20260505202933 | 16 | 92 | 3.2 | 8.0 | 0.00 | 0.00 | 0.00 | 77 | 1020.3 |
| 20260505202429 | 16 | 91 | 3.2 | 4.8 | 0.00 | 0.00 | 0.00 | 76 | 1020.3 |
| 20260505201926 | 16 | 91 | 3.2 | 4.8 | 0.00 | 0.00 | 0.00 | 76 | 1020.4 |
| 20260505201423 | 16 | 91 | 0.0 | 0.0 | 0.00 | 0.00 | 0.00 | 77 | 1020.4 |
| 20260505200921 | 16 | 91 | 0.0 | 3.2 | 0.00 | 0.00 | 0.00 | 77 | 1020.5 |
| 20260505200418 | 16 | 91 | 0.0 | 1.6 | 0.00 | 0.00 | 0.00 | 77 | 1020.5 |
| 20260505195913 | 17 | 91 | 0.0 | 1.6 | 0.00 | 0.00 | 0.00 | 76 | 1020.4 |
| 20260505195411 | 16 | 91 | 0.0 | 1.6 | 0.00 | 0.00 | 0.00 | 77 | 1020.4 |
| 20260505194908 | 17 | 91 | 1.6 | 1.6 | 0.00 | 0.00 | 0.00 | 75 | 1020.8 |
| 20260505194406 | 16 | 91 | 0.0 | 1.6 | 0.00 | 0.00 | 0.00 | 78 | 1020.4 |
| 20260505193905 | 16 | 91 | 1.6 | 4.8 | 0.00 | 0.00 | 0.00 | 78 | 1020.9 |
| 20260505193404 | 16 | 92 | 1.6 | 3.2 | 0.00 | 0.00 | 0.00 | 79 | 1020.6 |
| 20260505192901 | 16 | 91 | 0.0 | 1.6 | 0.00 | 0.00 | 0.00 | 79 | 1020.6 |
| 20260505192359 | 16 | 90 | 0.0 | 3.2 | 0.00 | 0.00 | 0.00 | 79 | 1020.8 |
| 20260505191856 | 15 | 91 | 0.0 | 0.0 | 0.00 | 0.00 | 0.00 | 80 | 1020.8 |
| 20260505191355 | 15 | 91 | 1.6 | 3.2 | 0.00 | 0.00 | 0.00 | 80 | 1020.5 |
| 20260505190851 | 15 | 92 | 1.6 | 1.6 | 0.00 | 0.00 | 0.00 | 80 | 1020.6 |
| 20260505190347 | 15 | 91 | 1.6 | 1.6 | 0.00 | 0.00 | 0.00 | 82 | 1020.5 |
| 20260505185842 | 15 | 91 | 1.6 | 3.2 | 0.00 | 0.00 | 0.00 | 81 | 1020.4 |
| 20260505185339 | 15 | 90 | 1.6 | 4.8 | 0.00 | 0.00 | 0.00 | 80 | 1020.5 |
| 20260505184835 | 15 | 91 | 0.0 | 3.2 | 0.00 | 0.00 | 0.00 | 81 | 1020.8 |
| 20260505184333 | 15 | 91 | 1.6 | 1.6 | 0.00 | 0.00 | 0.00 | 80 | 1020.5 |
| 20260505183830 | 16 | 92 | 0.0 | 1.6 | 0.00 | 0.00 | 0.00 | 78 | 1020.4 |
| 20260505183326 | 15 | 91 | 0.0 | 1.6 | 0.00 | 0.00 | 0.00 | 78 | 1020.5 |
| 20260505182823 | 16 | 91 | 1.6 | 1.6 | 0.00 | 0.00 | 0.00 | 77 | 1020.5 |
| 20260505182320 | 15 | 91 | 0.0 | 0.0 | 0.00 | 0.00 | 0.00 | 79 | 1020.5 |
| 20260505181817 | 16 | 91 | 0.0 | 0.0 | 0.00 | 0.00 | 0.00 | 78 | 1020.4 |
| 20260505181314 | 15 | 91 | 0.0 | 0.0 | 0.00 | 0.00 | 0.00 | 79 | 1020.5 |
| 20260505180810 | 15 | 91 | 0.0 | 4.8 | 0.00 | 0.00 | 0.00 | 81 | 1020.4 |
| 20260505180307 | 15 | 91 | 1.6 | 1.6 | 0.00 | 0.00 | 0.00 | 79 | 1020.4 |
| 20260505175803 | 15 | 92 | 0.0 | 1.6 | 0.00 | 0.00 | 0.00 | 78 | 1020.5 |
| 20260505175300 | 15 | 92 | 0.0 | 0.0 | 0.00 | 0.00 | 0.00 | 80 | 1020.5 |
| 20260505174756 | 15 | 92 | 0.0 | 0.0 | 0.00 | 0.00 | 0.00 | 80 | 1020.9 |
| 20260505174254 | 15 | 92 | 1.6 | 1.6 | 0.00 | 0.00 | 0.00 | 80 | 1020.5 |
| 20260505173749 | 15 | 91 | 0.0 | 0.0 | 0.00 | 0.00 | 0.00 | 81 | 1020.5 |
| 20260505173246 | 15 | 91 | 1.6 | 1.6 | 0.00 | 0.00 | 0.00 | 82 | 1020.2 |
| 20260505172743 | 14 | 91 | 0.0 | 1.6 | 0.00 | 0.00 | 0.00 | 83 | 1020.5 |
| 20260505172240 | 14 | 92 | 0.0 | 3.2 | 0.00 | 0.00 | 0.00 | 84 | 1020.4 |
| 20260505171740 | 15 | 91 | 0.0 | 1.6 | 0.00 | 0.00 | 0.00 | 84 | 1020.4 |
| 20260505171237 | 14 | 91 | 0.0 | 1.6 | 0.00 | 0.00 | 0.00 | 84 | 1020.3 |
| 20260505170734 | 14 | 91 | 1.6 | 1.6 | 0.00 | 0.00 | 0.00 | 84 | 1020.2 |
| 20260505170231 | 13 | 91 | 0.0 | 1.6 | 0.00 | 0.00 | 0.00 | 86 | 1020.4 |
| 20260505165726 | 13 | 91 | 0.0 | 0.0 | 0.00 | 0.00 | 0.00 | 87 | 1020.4 |
| 20260505165223 | 13 | 91 | 0.0 | 1.6 | 0.00 | 0.00 | 0.00 | 88 | 1020.4 |
| 20260505164718 | 13 | 91 | 0.0 | 0.0 | 0.00 | 0.00 | 0.00 | 88 | 1020.1 |
| 20260505164216 | 13 | 91 | 0.0 | 0.0 | 0.00 | 0.00 | 0.00 | 89 | 1020.4 |
| 20260505163714 | 13 | 91 | 0.0 | 0.0 | 0.00 | 0.00 | 0.00 | 90 | 1020.5 |
| 20260505163212 | 12 | 91 | 0.0 | 1.6 | 0.00 | 0.00 | 0.00 | 90 | 1020.5 |
| 20260505162709 | 12 | 91 | 0.0 | 0.0 | 0.00 | 0.00 | 0.00 | 91 | 1020.5 |
| 20260505162206 | 12 | 91 | 0.0 | 0.0 | 0.00 | 0.00 | 0.00 | 91 | 1020.5 |
| 20260505161703 | 12 | 91 | 0.0 | 0.0 | 0.00 | 0.00 | 0.00 | 92 | 1020.4 |
| 20260505161200 | 12 | 91 | 0.0 | 1.6 | 0.00 | 0.00 | 0.00 | 92 | 1020.5 |
| 20260505160658 | 12 | 91 | 0.0 | 1.6 | 0.00 | 0.00 | 0.00 | 92 | 1020.5 |
| 20260505160155 | 12 | 91 | 0.0 | 1.6 | 0.00 | 0.00 | 0.00 | 91 | 1020.6 |
| 20260505153134 | 12 | 91 | 0.0 | 1.6 | 0.00 | 0.00 | 0.00 | 93 | 1020.3 |
| 20260505152631 | 12 | 91 | 0.0 | 0.0 | 0.00 | 0.00 | 0.00 | 93 | 1020.3 |
| 20260505152127 | 12 | 91 | 0.0 | 0.0 | 0.00 | 0.00 | 0.00 | 94 | 1020.2 |
| 20260505151622 | 12 | 91 | 0.0 | 0.0 | 0.00 | 0.00 | 0.00 | 94 | 1020.2 |
| 20260505151120 | 12 | 91 | 0.0 | 0.0 | 0.00 | 0.00 | 0.00 | 94 | 1020.2 |
| 20260505150616 | 12 | 91 | 0.0 | 0.0 | 0.00 | 0.00 | 0.00 | 94 | 1020.2 |
| 20260505150113 | 11 | 91 | 0.0 | 1.6 | 0.00 | 0.00 | 0.00 | 94 | 1020.3 |
| 20260505140541 | 11 | 91 | 0.0 | 0.0 | 0.00 | 0.00 | 0.00 | 96 | 1020.0 |
| 20260505124955 | 11 | 91 | 0.0 | 0.0 | 0.00 | 0.00 | 0.00 | 95 | 1019.4 |
| 20260505124452 | 11 | 91 | 0.0 | 0.0 | 0.00 | 0.00 | 0.00 | 95 | 1019.2 |
| 20260505123948 | 11 | 91 | 0.0 | 0.0 | 0.00 | 0.00 | 0.00 | 95 | 1019.4 |
| 20260505123444 | 11 | 91 | 0.0 | 0.0 | 0.00 | 0.00 | 0.00 | 95 | 1019.3 |
| 20260505122940 | 11 | 91 | 1.6 | 1.6 | 0.00 | 0.00 | 0.00 | 95 | 1019.2 |
| 20260505122438 | 11 | 91 | 0.0 | 0.0 | 0.00 | 0.00 | 0.00 | 95 | 1019.3 |
| 20260505121934 | 11 | 91 | 0.0 | 1.6 | 0.00 | 0.00 | 0.00 | 95 | 1019.3 |
| 20260505121432 | 11 | 91 | 0.0 | 0.0 | 0.00 | 0.00 | 0.00 | 95 | 1019.1 |
| 20260505120927 | 11 | 91 | 1.6 | 1.6 | 0.00 | 0.00 | 0.00 | 95 | 1019.1 |
| 20260505120424 | 11 | 91 | 0.0 | 0.0 | 0.00 | 0.00 | 0.00 | 95 | 1019.1 |
| 20260505115923 | 11 | 91 | 1.6 | 1.6 | 0.00 | 0.00 | 0.00 | 95 | 1019.2 |
| 20260505115420 | 11 | 91 | 0.0 | 1.6 | 0.00 | 0.00 | 0.00 | 95 | 1019.2 |
| 20260505114918 | 11 | 90 | 0.0 | 1.6 | 0.00 | 0.00 | 0.00 | 95 | 1019.1 |
| 20260505114414 | 11 | 90 | 0.0 | 1.6 | 0.00 | 0.00 | 0.00 | 95 | 1019.1 |
| 20260505113910 | 11 | 90 | 0.0 | 1.6 | 0.00 | 0.00 | 0.00 | 95 | 1019.1 |
| 20260505113407 | 11 | 91 | 1.6 | 1.6 | 0.00 | 0.00 | 0.00 | 95 | 1019.2 |
| 20260505112903 | 11 | 91 | 1.6 | 1.6 | 0.00 | 0.00 | 0.00 | 95 | 1019.1 |
| 20260505112401 | 11 | 91 | 0.0 | 0.0 | 0.00 | 0.00 | 0.00 | 94 | 1019.1 |
| 20260505111856 | 12 | 91 | 0.0 | 1.6 | 0.00 | 0.00 | 0.00 | 93 | 1019.2 |
| 20260505111351 | 12 | 91 | 0.0 | 1.6 | 0.00 | 0.00 | 0.00 | 93 | 1019.2 |
| 20260505110848 | 12 | 91 | 0.0 | 1.6 | 0.00 | 0.00 | 0.00 | 93 | 1019.1 |
| 20260505110345 | 12 | 91 | 0.0 | 1.6 | 0.00 | 0.00 | 0.00 | 93 | 1019.2 |
| 20260505101815 | 12 | 91 | 1.6 | 1.6 | 0.00 | 0.00 | 0.00 | 92 | 1019.1 |
| 20260505101310 | 12 | 91 | 1.6 | 1.6 | 0.00 | 0.00 | 0.00 | 92 | 1018.9 |
| 20260505100807 | 12 | 91 | 1.6 | 1.6 | 0.00 | 0.00 | 0.00 | 92 | 1019.0 |
| 20260505100303 | 12 | 91 | 1.6 | 1.6 | 0.00 | 0.00 | 0.00 | 91 | 1018.8 |
| 20260505095759 | 12 | 91 | 1.6 | 1.6 | 0.00 | 0.00 | 0.00 | 91 | 1018.7 |
| 20260505095257 | 12 | 91 | 1.6 | 1.6 | 0.00 | 0.00 | 0.00 | 91 | 1018.7 |
| 20260505094752 | 12 | 91 | 1.6 | 1.6 | 0.00 | 0.00 | 0.00 | 91 | 1018.8 |
| 20260505094249 | 12 | 91 | 1.6 | 1.6 | 0.00 | 0.00 | 0.00 | 91 | 1018.8 |
| 20260505093745 | 12 | 91 | 1.6 | 1.6 | 0.00 | 0.00 | 0.00 | 90 | 1018.8 |
| 20260505093243 | 12 | 91 | 1.6 | 1.6 | 0.00 | 0.00 | 0.00 | 90 | 1018.5 |
| 20260505092740 | 12 | 91 | 0.0 | 1.6 | 0.00 | 0.00 | 0.00 | 90 | 1018.6 |
| 20260505092238 | 12 | 91 | 0.0 | 0.0 | 0.00 | 0.00 | 0.00 | 90 | 1018.6 |
| 20260505091735 | 12 | 91 | 0.0 | 1.6 | 0.00 | 0.00 | 0.00 | 90 | 1018.7 |
| 20260505091233 | 12 | 91 | 1.6 | 1.6 | 0.00 | 0.00 | 0.00 | 89 | 1018.5 |
| 20260505090730 | 12 | 91 | 0.0 | 1.6 | 0.00 | 0.00 | 0.00 | 90 | 1018.5 |
| 20260505090229 | 12 | 91 | 1.6 | 3.2 | 0.00 | 0.00 | 0.00 | 89 | 1018.4 |
| 20260505085725 | 12 | 91 | 1.6 | 3.2 | 0.00 | 0.00 | 0.00 | 89 | 1018.4 |
| 20260505085224 | 12 | 91 | 1.6 | 1.6 | 0.00 | 0.00 | 0.00 | 89 | 1018.5 |
| 20260505084721 | 12 | 91 | 1.6 | 1.6 | 0.00 | 0.00 | 0.00 | 89 | 1018.5 |
| 20260505084220 | 12 | 91 | 1.6 | 4.8 | 0.00 | 0.00 | 0.00 | 89 | 1018.5 |
| 20260505083716 | 12 | 91 | 3.2 | 3.2 | 0.00 | 0.00 | 0.00 | 89 | 1018.4 |
| 20260505083213 | 12 | 91 | 0.0 | 1.6 | 0.00 | 0.00 | 0.00 | 89 | 1018.5 |
| 20260505082709 | 12 | 91 | 0.0 | 1.6 | 0.00 | 0.00 | 0.00 | 89 | 1018.4 |
| 20260505082206 | 13 | 91 | 1.6 | 1.6 | 0.00 | 0.00 | 0.00 | 88 | 1018.5 |
| 20260505081702 | 13 | 91 | 1.6 | 1.6 | 0.00 | 0.00 | 0.00 | 88 | 1018.3 |
| 20260505081200 | 13 | 91 | 1.6 | 1.6 | 0.00 | 0.00 | 0.00 | 88 | 1018.6 |
| 20260505080656 | 13 | 91 | 1.6 | 1.6 | 0.00 | 0.00 | 0.00 | 88 | 1018.6 |
| 20260505080152 | 13 | 91 | 3.2 | 4.8 | 0.00 | 0.00 | 0.00 | 88 | 1018.4 |
| 20260505075648 | 13 | 91 | 0.0 | 3.2 | 0.00 | 0.00 | 0.00 | 88 | 1018.6 |
| 20260505075145 | 13 | 91 | 0.0 | 1.6 | 0.00 | 0.00 | 0.00 | 88 | 1018.5 |
| 20260505074642 | 13 | 91 | 0.0 | 3.2 | 0.00 | 0.00 | 0.00 | 88 | 1018.6 |
| 20260505074139 | 13 | 91 | 1.6 | 1.6 | 0.00 | 0.00 | 0.00 | 88 | 1018.3 |
| 20260505073637 | 13 | 91 | 0.0 | 1.6 | 0.00 | 0.00 | 0.00 | 87 | 1018.2 |
| 20260505073135 | 13 | 91 | 0.0 | 1.6 | 0.00 | 0.00 | 0.00 | 87 | 1018.3 |
| 20260505072630 | 13 | 91 | 0.0 | 1.6 | 0.00 | 0.00 | 0.00 | 87 | 1018.2 |
| 20260505072127 | 13 | 91 | 0.0 | 1.6 | 0.00 | 0.00 | 0.00 | 87 | 1018.5 |
| 20260505071623 | 13 | 91 | 0.0 | 1.6 | 0.00 | 0.00 | 0.00 | 87 | 1018.2 |
| 20260505071121 | 13 | 91 | 1.6 | 1.6 | 0.00 | 0.00 | 0.00 | 87 | 1018.2 |
| 20260505070618 | 13 | 91 | 1.6 | 4.8 | 0.00 | 0.00 | 0.00 | 87 | 1018.2 |
| 20260505070114 | 13 | 91 | 0.0 | 1.6 | 0.00 | 0.00 | 0.00 | 87 | 1018.1 |
| 20260505065610 | 13 | 91 | 0.0 | 3.2 | 0.00 | 0.00 | 0.00 | 86 | 1018.2 |
| 20260505065107 | 13 | 91 | 0.0 | 1.6 | 0.00 | 0.00 | 0.00 | 86 | 1018.1 |
| 20260505064604 | 13 | 91 | 0.0 | 3.2 | 0.00 | 0.00 | 0.00 | 86 | 1018.3 |
| 20260505064102 | 13 | 91 | 1.6 | 3.2 | 0.00 | 0.00 | 0.00 | 86 | 1018.2 |
| 20260505063559 | 13 | 91 | 0.0 | 1.6 | 0.00 | 0.00 | 0.00 | 86 | 1018.1 |
| 20260505063055 | 13 | 91 | 0.0 | 3.2 | 0.00 | 0.00 | 0.00 | 86 | 1018.1 |
| 20260505062551 | 13 | 91 | 0.0 | 1.6 | 0.00 | 0.00 | 0.00 | 86 | 1018.0 |
| 20260505062049 | 13 | 91 | 0.0 | 1.6 | 0.00 | 0.00 | 0.00 | 86 | 1018.2 |
| 20260505061546 | 14 | 91 | 3.2 | 4.8 | 0.00 | 0.00 | 0.00 | 85 | 1018.1 |
| 20260505061044 | 14 | 91 | 0.0 | 1.6 | 0.00 | 0.00 | 0.00 | 85 | 1017.9 |
| 20260505060541 | 14 | 91 | 1.6 | 3.2 | 0.00 | 0.00 | 0.00 | 85 | 1018.1 |
| 20260505060037 | 14 | 91 | 1.6 | 3.2 | 0.00 | 0.00 | 0.00 | 85 | 1018.2 |
| 20260505055533 | 14 | 91 | 1.6 | 1.6 | 0.00 | 0.00 | 0.00 | 85 | 1018.3 |
| 20260505055030 | 14 | 91 | 0.0 | 3.2 | 0.00 | 0.00 | 0.00 | 85 | 1018.2 |
| 20260505054527 | 14 | 91 | 0.0 | 0.0 | 0.00 | 0.00 | 0.00 | 85 | 1018.1 |
| 20260505054025 | 14 | 91 | 0.0 | 3.2 | 0.00 | 0.00 | 0.00 | 84 | 1018.1 |
| 20260505053522 | 15 | 91 | 0.0 | 0.0 | 0.00 | 0.00 | 0.00 | 84 | 1018.1 |
| 20260505053019 | 15 | 91 | 0.0 | 1.6 | 0.00 | 0.00 | 0.00 | 84 | 1018.0 |
| 20260505052516 | 15 | 91 | 0.0 | 1.6 | 0.00 | 0.00 | 0.00 | 84 | 1018.2 |
| 20260505052014 | 15 | 91 | 1.6 | 1.6 | 0.00 | 0.00 | 0.00 | 83 | 1017.8 |
| 20260505051510 | 15 | 91 | 0.0 | 3.2 | 0.00 | 0.00 | 0.00 | 84 | 1017.9 |
| 20260505051008 | 15 | 92 | 1.6 | 3.2 | 0.00 | 0.00 | 0.00 | 83 | 1017.9 |
| 20260505050506 | 15 | 91 | 0.0 | 1.6 | 0.00 | 0.00 | 0.00 | 83 | 1017.7 |
| 20260505041434 | 16 | 91 | 0.0 | 0.0 | 0.00 | 0.00 | 0.00 | 82 | 1017.1 |
| 20260505040931 | 16 | 91 | 0.0 | 1.6 | 0.00 | 0.00 | 0.00 | 82 | 1017.3 |
| 20260505040428 | 16 | 91 | 0.0 | 1.6 | 0.00 | 0.00 | 0.00 | 82 | 1017.1 |
| 20260505035925 | 16 | 92 | 1.6 | 3.2 | 0.00 | 0.00 | 0.00 | 82 | 1017.2 |
| 20260505035421 | 16 | 91 | 0.0 | 0.0 | 0.00 | 0.00 | 0.00 | 82 | 1017.1 |
| 20260505034919 | 16 | 91 | 0.0 | 0.0 | 0.00 | 0.00 | 0.00 | 82 | 1016.8 |
| 20260505034414 | 16 | 92 | 0.0 | 1.6 | 0.00 | 0.00 | 0.00 | 81 | 1016.6 |
| 20260505033912 | 16 | 91 | 0.0 | 3.2 | 0.00 | 0.00 | 0.00 | 81 | 1016.6 |
| 20260505033409 | 17 | 91 | 1.6 | 3.2 | 0.00 | 0.00 | 0.00 | 81 | 1016.5 |
| 20260505032907 | 17 | 91 | 0.0 | 0.0 | 0.00 | 0.00 | 0.00 | 81 | 1016.2 |
| 20260505032403 | 17 | 91 | 1.6 | 1.6 | 0.00 | 0.00 | 0.00 | 80 | 1016.2 |
| 20260505031900 | 17 | 91 | 1.6 | 3.2 | 0.00 | 0.00 | 0.00 | 79 | 1016.1 |
| 20260505031357 | 17 | 92 | 1.6 | 3.2 | 0.00 | 0.00 | 0.00 | 79 | 1016.0 |
| 20260505030854 | 18 | 92 | 3.2 | 3.2 | 0.00 | 0.00 | 0.00 | 78 | 1016.0 |
| 20260505030350 | 18 | 92 | 0.0 | 3.2 | 0.00 | 0.00 | 0.00 | 77 | 1015.8 |
| 20260505025845 | 18 | 91 | 0.0 | 3.2 | 0.00 | 0.00 | 0.00 | 77 | 1015.9 |
| 20260505025343 | 18 | 92 | 0.0 | 1.6 | 0.00 | 0.00 | 0.00 | 75 | 1015.8 |
| 20260505024842 | 18 | 92 | 0.0 | 3.2 | 0.00 | 0.00 | 0.00 | 75 | 1015.5 |
| 20260505024339 | 19 | 91 | 0.0 | 1.6 | 0.00 | 0.00 | 0.00 | 74 | 1015.5 |
| 20260505023836 | 20 | 92 | 3.2 | 4.8 | 0.00 | 0.00 | 0.00 | 73 | 1015.6 |
| 20260505023333 | 20 | 91 | 1.6 | 1.6 | 0.00 | 0.00 | 0.00 | 71 | 1015.4 |
| 20260505022830 | 20 | 91 | 0.0 | 1.6 | 0.00 | 0.00 | 0.00 | 70 | 1015.2 |
| 20260505022327 | 20 | 91 | 0.0 | 3.2 | 0.00 | 0.00 | 0.00 | 70 | 1015.4 |
| 20260505021824 | 21 | 91 | 1.6 | 3.2 | 0.00 | 0.00 | 0.00 | 69 | 1015.5 |
| 20260505021321 | 21 | 91 | 0.0 | 3.2 | 0.00 | 0.00 | 0.00 | 69 | 1015.5 |
| 20260505020816 | 21 | 91 | 3.2 | 8.0 | 0.00 | 0.00 | 0.00 | 69 | 1015.6 |
| 20260505020312 | 21 | 91 | 0.0 | 0.0 | 0.00 | 0.00 | 0.00 | 69 | 1015.4 |
| 20260505015809 | 21 | 92 | 0.0 | 3.2 | 0.00 | 0.00 | 0.00 | 68 | 1015.5 |
| 20260505015307 | 21 | 92 | 3.2 | 8.0 | 0.00 | 0.00 | 0.00 | 67 | 1015.5 |
| 20260505014804 | 21 | 91 | 1.6 | 3.2 | 0.00 | 0.00 | 0.00 | 67 | 1015.4 |
| 20260505014301 | 21 | 93 | 3.2 | 4.8 | 0.00 | 0.00 | 0.00 | 66 | 1015.5 |
| 20260505013757 | 21 | 92 | 3.2 | 3.2 | 0.00 | 0.00 | 0.00 | 66 | 1015.4 |
| 20260505013255 | 22 | 92 | 1.6 | 1.6 | 0.00 | 0.00 | 0.00 | 65 | 1015.5 |
| 20260505012753 | 22 | 92 | 3.2 | 3.2 | 0.00 | 0.00 | 0.00 | 65 | 1015.6 |
| 20260505012250 | 21 | 90 | 0.0 | 4.8 | 0.00 | 0.00 | 0.00 | 66 | 1015.5 |
| 20260505011745 | 21 | 91 | 3.2 | 4.8 | 0.00 | 0.00 | 0.00 | 65 | 1015.8 |
| 20260505011243 | 22 | 91 | 3.2 | 4.8 | 0.00 | 0.00 | 0.00 | 64 | 1015.9 |
| 20260505010738 | 21 | 90 | 0.0 | 4.8 | 0.00 | 0.00 | 0.00 | 66 | 1015.5 |
| 20260505010235 | 22 | 91 | 3.2 | 3.2 | 0.00 | 0.00 | 0.00 | 64 | 1015.6 |
| 20260505005731 | 22 | 89 | 1.6 | 4.8 | 0.00 | 0.00 | 0.00 | 64 | 1015.8 |
| 20260505005228 | 22 | 90 | 3.2 | 3.2 | 0.00 | 0.00 | 0.00 | 64 | 1015.7 |